Theta_e
331 332 336 337 338 337 338 337 339 340 340 341 341 339 339 339 339 339 339 339 337 337 337 337 338 337 336 335 337 339 339 337 335 332 330 330 328 328 334 334 333 333 330 331 326 322 320 318 319 325 327 327 325 323 322 323 324 324 324 324 323 325 327
334 334 338 338 337 338 339 340 341 340 342 342 340 341 341 339 339 339 339 339 339 337 337 336 337 337 339 335 334 336 336 335 336 335 331 331 331 329 330 329 329 329 330 333 333 327 323 319 318 320 321 325 325 322 323 323 323 323 322 322 321 322 326
333 336 337 337 339 339 341 340 340 338 338 338 339 340 342 340 340 340 339 338 339 338 337 336 336 336 337 337 336 337 338 336 336 335 332 331 334 334 333 328 326 326 324 327 327 327 325 324 318 317 319 318 316 318 322 320 321 320 319 320 320 319 321
334 335 334 334 335 338 336 337 336 336 337 336 338 338 338 338 339 341 340 339 339 340 338 337 337 336 337 338 335 337 335 335 334 332 330 335 335 333 331 329 327 328 325 321 324 325 322 322 318 318 319 319 316 315 318 319 319 318 319 320 319 318 319
333 332 334 335 335 336 334 335 336 337 337 337 337 336 337 336 338 340 341 340 339 340 338 338 338 336 337 336 336 336 333 334 334 332 331 332 332 330 331 331 330 330 330 326 326 327 327 323 320 318 318 318 315 315 315 318 318 317 317 317 317 318 317
338 337 337 336 335 332 332 333 335 335 336 335 334 335 336 337 336 337 339 341 340 341 341 339 339 337 337 339 338 335 337 335 336 335 334 328 331 330 331 332 332 330 330 330 330 329 331 329 323 318 318 317 312 310 312 313 313 315 316 315 315 316 316
335 336 336 332 334 333 334 333 334 335 333 333 333 333 335 334 334 336 336 338 339 341 339 340 339 338 337 335 336 335 335 336 336 338 335 331 331 333 334 333 333 331 330 331 334 332 329 326 323 320 318 317 313 308 309 311 312 310 311 313 315 315 314
335 334 332 334 335 336 335 334 334 333 332 332 331 334 334 334 334 335 335 335 336 341 338 339 339 339 338 336 335 336 336 335 335 334 336 332 329 330 333 334 334 333 331 331 331 330 330 328 325 322 319 314 310 310 308 309 309 310 309 312 314 314 315
335 335 336 335 335 335 334 333 333 334 334 333 334 333 333 333 332 333 334 334 335 336 340 339 338 338 339 337 336 337 337 336 336 337 336 336 334 330 331 337 334 332 333 331 332 334 331 329 327 325 321 316 310 307 309 306 308 308 311 310 312 314 315
335 335 336 335 335 335 335 334 333 335 335 334 333 334 333 332 332 332 331 331 334 335 336 339 339 339 338 338 337 338 338 338 337 334 334 336 338 338 338 336 333 333 333 331 332 332 332 330 328 324 321 317 315 310 307 306 309 306 309 311 309 312 315
334 336 336 334 334 334 334 334 335 333 333 333 333 333 333 332 332 330 330 331 334 334 333 333 332 335 338 337 338 338 338 338 336 335 336 336 337 335 335 334 333 333 331 331 334 334 330 331 325 324 322 320 318 313 311 308 308 310 309 312 312 310 313
335 336 335 334 334 333 333 333 332 332 332 332 331 332 331 330 331 331 331 331 332 333 333 333 332 332 332 334 336 337 336 337 335 333 336 335 336 335 333 332 333 332 333 332 333 332 332 330 326 324 322 321 319 324 314 313 308 311 313 311 312 312 312
332 331 332 332 332 332 331 332 331 331 331 330 330 331 330 329 329 329 329 329 329 331 331 332 333 331 331 332 333 333 334 334 332 332 332 333 333 333 331 331 332 332 332 331 332 331 329 328 328 323 323 322 318 321 317 314 311 310 315 314 313 312 313
332 331 332 332 332 332 332 332 331 331 329 329 330 330 329 329 327 328 327 327 327 329 329 331 332 331 331 331 334 332 331 332 330 332 331 332 332 332 330 330 331 330 333 331 329 328 326 325 324 323 323 319 317 319 317 316 313 312 317 320 317 312 314
332 331 332 332 331 331 331 331 332 330 330 329 329 327 328 329 327 327 326 325 326 327 328 328 330 331 329 330 331 333 332 329 327 326 328 326 328 331 331 331 331 330 331 329 329 324 324 325 321 320 319 318 315 316 320 315 313 313 313 318 316 315 313
330 331 331 331 331 330 331 331 330 330 329 328 329 328 328 325 325 325 326 326 326 327 328 328 330 329 329 328 327 328 328 327 326 326 326 326 326 332 331 330 329 331 330 329 327 325 324 322 320 318 318 316 316 317 317 316 315 314 314 315 319 315 315
331 330 330 331 332 332 330 330 329 329 328 327 327 329 326 324 323 326 326 326 327 327 327 329 329 327 326 326 325 325 326 327 326 326 326 324 323 325 327 329 329 331 331 328 327 325 323 322 320 318 317 319 318 314 319 319 318 317 315 314 316 315 315
331 330 330 330 331 331 331 329 329 328 328 328 327 326 323 324 324 325 327 325 325 326 326 327 326 325 326 326 325 325 325 324 326 324 325 323 326 323 324 324 327 331 331 330 327 324 323 323 320 319 317 317 318 317 320 318 319 318 316 315 315 316 317
330 329 328 330 331 331 330 329 329 331 327 327 326 324 323 323 322 323 323 324 323 323 324 325 325 325 325 325 325 325 325 325 324 324 324 323 322 324 324 323 324 325 331 327 327 325 326 323 320 320 318 318 317 319 321 319 320 319 317 316 317 313 317
328 329 330 330 330 330 329 329 330 328 327 326 324 323 322 322 323 323 322 323 323 323 322 322 324 325 325 325 325 324 324 324 324 324 323 322 323 324 325 324 325 325 325 329 329 328 326 324 323 322 321 322 318 319 318 319 317 317 318 317 316 318 316
328 329 330 330 329 329 329 328 328 327 326 324 323 321 320 320 322 323 324 323 323 323 323 322 322 322 323 324 325 325 324 325 324 324 324 323 324 324 325 324 324 324 324 325 327 327 331 326 325 323 324 322 322 321 320 319 319 317 317 317 316 317 317
329 329 328 328 328 328 328 327 325 325 323 322 322 320 321 320 321 322 322 323 322 324 324 318 312 310 315 320 322 324 325 324 324 323 323 323 324 324 324 324 323 324 322 315 307 310 312 316 332 325 325 324 323 322 321 320 319 317 317 317 316 317 316
328 328 327 327 327 326 325 324 323 322 322 322 322 321 320 320 320 321 320 321 326 323 320 313 301 296 298 310 319 321 324 324 324 324 323 322 323 323 323 324 323 315 313 311 307 303 300 302 306 318 324 325 323 321 321 319 319 318 318 315 315 316 315
327 326 327 327 327 326 326 328 327 322 323 323 323 322 322 319 319 320 320 323 321 318 313 304 294 293 294 294 312 324 323 322 323 322 322 322 321 321 321 322 323 322 320 316 321 299 302 302 300 298 299 303 308 320 322 320 318 319 317 316 317 316 315
324 324 324 323 324 324 324 325 325 325 325 324 323 324 323 322 323 324 323 321 318 315 309 295 291 293 293 293 297 316 325 323 323 322 322 321 320 321 320 322 323 322 323 327 323 320 313 300 304 303 301 299 297 295 299 316 319 319 320 317 316 317 316
319 318 317 318 319 320 320 320 321 322 323 324 325 324 326 324 323 321 319 315 313 311 309 293 292 292 293 292 292 303 323 322 320 321 323 322 323 322 321 322 323 323 320 318 320 321 322 324 301 294 298 300 300 298 299 298 299 316 320 319 320 319 318
316 316 316 316 316 316 316 317 319 320 321 322 322 322 321 320 319 317 315 313 310 308 304 294 291 291 292 291 292 297 325 323 323 322 322 322 323 323 323 323 323 322 324 324 324 325 321 323 325 325 325 323 321 318 300 297 296 294 305 319 319 319 323
313 314 314 313 312 312 313 315 315 316 318 318 318 317 317 316 315 314 313 311 309 305 301 291 291 291 292 291 291 297 325 323 322 323 324 324 324 324 325 325 324 323 326 322 309 307 323 325 326 325 324 325 325 324 324 325 324 322 322 322 321 320 322
310 310 311 311 310 310 310 311 311 312 313 314 316 316 316 316 315 313 312 311 308 304 301 291 291 291 291 291 292 319 323 323 323 325 326 327 325 327 327 328 327 327 327 318 299 293 298 313 323 323 322 322 322 323 324 319 317 317 324 325 325 324 325
309 308 309 309 309 310 308 308 308 308 309 310 310 311 313 313 314 315 313 312 309 305 302 294 290 291 291 290 299 319 322 321 323 323 324 325 324 326 327 322 322 324 323 311 294 292 293 299 323 323 323 323 324 323 323 325 311 303 300 298 296 296 295
306 307 308 308 308 308 308 308 307 308 306 306 306 307 308 307 308 309 310 310 310 306 302 295 290 291 291 290 296 314 317 319 320 320 321 322 323 323 315 311 319 322 316 306 291 291 291 304 317 320 322 322 322 322 325 327 328 327 306 304 301 298 296
306 305 304 304 304 304 305 306 307 308 307 307 307 306 306 306 305 306 306 306 306 309 306 299 291 291 291 291 298 309 313 314 315 316 316 316 318 319 317 306 300 304 304 296 289 290 290 299 309 313 315 317 318 320 322 323 325 325 325 325 325 324 316
304 304 304 304 305 305 305 305 305 305 307 308 308 308 307 306 306 306 307 307 305 306 306 302 295 290 291 292 291 304 313 311 310 309 311 310 310 312 314 309 298 290 291 290 289 289 290 290 302 306 308 308 310 313 313 311 314 318 322 323 323 323 322
303 304 304 305 305 305 305 305 306 307 307 307 307 307 307 306 307 307 307 306 305 303 303 305 298 290 291 291 291 295 309 307 304 304 305 306 307 308 309 311 305 292 290 290 290 290 290 290 290 301 305 306 308 305 300 307 309 303 311 315 320 320 320
304 305 305 304 303 304 304 305 306 306 307 307 307 306 305 305 305 304 304 304 305 303 300 301 302 292 291 291 290 291 301 300 297 300 303 305 306 308 309 309 308 295 290 291 291 291 290 291 290 297 301 295 293 293 300 303 306 307 307 308 309 312 316
303 303 303 303 303 303 303 304 305 305 306 305 306 306 306 306 306 305 304 304 303 304 303 300 296 298 290 290 289 291 289 295 290 302 301 300 301 302 305 307 306 293 291 291 291 291 291 290 292 299 293 292 292 290 293 303 305 306 306 305 306 306 308
302 302 302 302 302 302 302 302 303 304 305 304 304 304 304 306 306 306 306 306 307 307 307 305 296 296 296 290 291 290 290 289 289 298 300 300 300 303 303 304 299 291 291 291 291 291 291 290 294 291 290 291 291 291 299 302 302 304 303 303 303 304 304
Wind_Speed
4 3 6 8 7 5 8 8 7 7 8 9 8 7 7 8 9 7 7 5 5 6 5 5 3 3 3 1 3 1 5 5 4 6 6 7 7 5 2 1 2 3 4 2 4 7 7 8 5 4 5 5 5 5 5 6 7 6 5 5 7 7 6
2 6 7 6 6 7 7 6 6 6 7 6 7 7 7 7 6 6 6 6 5 5 5 6 5 5 4 7 6 3 5 5 6 4 5 5 4 5 4 1 3 3 2 1 2 1 4 8 7 7 7 5 4 4 3 4 6 5 3 3 6 7 6
7 7 7 7 6 6 6 7 6 6 6 6 6 6 6 6 6 6 7 6 6 6 5 6 5 4 3 4 4 6 4 6 5 4 4 5 6 6 4 2 2 4 1 2 1 3 3 4 6 9 7 8 7 5 4 4 6 5 5 5 5 7 6
8 9 7 7 7 6 6 6 5 5 5 5 5 5 6 5 5 6 6 6 6 5 5 5 4 5 4 4 2 3 5 4 4 7 9 5 5 5 5 4 3 3 4 2 3 3 2 2 6 7 8 8 7 7 6 5 6 7 6 4 5 5 5
11 8 8 8 8 7 6 6 4 4 4 4 4 4 4 5 5 4 5 5 5 5 5 4 3 4 4 6 7 6 6 4 4 5 1 4 4 5 5 3 4 4 5 4 4 1 3 4 4 7 8 8 8 7 6 5 6 6 6 6 6 6 6
9 8 7 7 7 6 6 6 5 5 5 4 4 3 4 4 4 4 4 4 4 4 4 4 4 5 3 4 3 4 5 8 4 7 6 12 6 5 5 5 4 4 6 7 8 7 4 2 4 7 7 7 7 7 7 7 6 6 5 6 6 6 7
9 7 7 7 6 6 5 6 5 4 4 4 4 3 4 3 3 3 3 4 3 3 4 3 3 4 4 4 4 4 5 4 6 4 6 11 5 5 4 6 5 4 3 3 6 5 5 4 5 7 6 6 8 7 7 7 7 7 6 6 6 7 7
8 7 7 7 6 6 6 5 5 4 4 3 4 3 3 2 2 2 2 2 3 2 4 4 4 4 3 3 3 3 3 5 5 5 3 10 7 5 5 6 6 4 4 3 3 4 5 4 5 7 6 8 7 7 8 7 7 6 7 6 6 7 7
7 8 7 7 7 6 6 6 5 4 5 4 4 4 2 1 2 2 2 3 2 3 3 4 4 4 4 4 3 4 5 3 4 4 3 4 7 10 9 5 5 5 4 4 3 2 3 4 6 6 6 6 7 7 7 7 7 8 8 8 7 8 8
8 8 7 8 8 7 7 6 5 6 6 5 4 4 3 2 1 1 3 2 1 2 3 3 3 3 4 4 3 4 4 4 3 5 3 3 3 5 4 5 3 4 5 5 4 5 5 5 6 7 7 6 5 6 6 7 6 7 8 8 7 8 9
8 8 8 9 8 7 7 6 6 6 5 5 5 4 3 4 2 1 1 1 1 1 1 2 3 3 3 3 2 3 4 3 2 2 3 3 3 4 5 4 4 4 6 4 4 4 6 9 8 7 8 6 6 6 5 6 7 6 7 7 6 8 9
9 8 8 9 8 8 7 6 6 6 6 5 5 5 4 4 3 3 2 2 2 2 2 2 1 2 3 1 2 2 3 4 4 4 3 4 4 4 5 6 5 4 4 5 4 4 6 5 6 6 6 6 5 4 6 5 6 5 6 6 7 8 9
10 9 9 9 8 8 7 7 7 6 5 5 5 4 3 4 3 3 3 3 3 3 3 2 2 2 3 3 3 3 3 4 2 2 5 5 4 4 3 4 6 5 4 4 3 6 6 6 5 5 6 3 2 2 4 5 5 7 5 5 6 8 10
11 11 11 9 9 8 7 7 7 6 5 5 5 4 5 4 4 3 3 3 3 4 3 2 2 1 2 2 4 4 3 4 7 9 6 6 5 5 6 7 8 7 8 7 7 7 7 7 6 7 4 4 5 5 6 6 7 7 5 4 4 7 8
10 9 10 10 8 9 7 7 6 6 5 6 5 5 5 2 2 3 3 3 1 1 2 2 2 2 2 2 2 3 5 6 3 2 4 6 7 8 10 11 9 8 7 5 8 8 8 7 8 8 6 6 7 7 6 8 10 7 7 5 5 5 9
11 10 11 9 10 9 8 7 6 6 5 5 4 4 4 4 3 4 3 2 2 2 2 2 1 2 2 1 2 2 2 3 3 2 3 3 4 3 5 4 6 9 7 7 7 7 8 8 8 8 7 6 7 6 7 6 11 9 9 7 5 7 8
12 12 10 9 10 9 9 7 7 6 5 5 5 3 4 3 4 3 4 4 4 3 3 3 4 4 4 4 4 5 4 3 3 4 4 6 6 4 2 1 6 7 7 7 7 7 8 9 10 7 8 6 7 7 5 8 6 9 8 8 7 7 8
12 12 11 10 10 10 9 8 7 6 5 5 5 4 4 3 3 5 3 4 4 4 4 3 3 2 3 3 3 4 4 4 5 5 6 6 6 6 7 8 6 6 8 9 10 8 8 8 9 6 7 7 6 7 3 3 2 3 7 9 9 8 7
13 12 12 11 11 10 9 8 7 6 6 6 5 4 4 3 3 5 6 5 6 5 4 4 4 3 2 1 1 3 3 5 4 5 3 3 3 3 4 4 6 7 7 4 8 7 7 9 8 6 8 7 8 7 5 5 4 4 5 4 7 8 6
12 12 11 11 10 10 9 8 8 7 6 6 5 4 4 4 3 3 4 3 3 3 3 3 5 4 4 3 2 1 2 3 3 3 4 3 5 4 4 4 3 4 5 7 5 7 6 6 5 3 5 6 6 8 7 5 6 6 5 4 6 4 6
12 11 11 11 11 10 9 8 7 7 7 6 5 4 4 4 3 3 4 3 3 2 2 6 9 7 3 4 3 4 2 2 4 3 3 3 3 3 4 4 4 5 2 1 2 7 7 6 5 5 4 4 4 3 5 6 6 6 7 7 7 6 6
11 11 11 11 11 10 9 8 8 8 7 6 4 5 4 4 4 4 5 3 4 5 10 8 6 7 8 9 2 5 4 5 3 4 4 3 3 4 4 4 2 6 9 6 10 10 8 7 1 5 5 4 4 4 5 6 6 6 6 6 6 6 6
11 12 12 11 11 10 9 8 8 8 7 7 6 5 5 5 4 5 6 5 9 8 7 5 10 11 7 5 9 4 5 4 5 4 4 6 4 4 5 5 7 8 9 8 8 9 9 8 9 6 4 3 3 5 6 6 6 6 6 6 7 6 7
12 13 13 12 11 10 9 7 6 6 7 7 7 5 4 4 5 5 5 7 8 8 6 6 12 11 11 11 7 9 2 3 4 5 5 4 4 5 3 4 7 6 5 4 4 5 5 7 8 7 6 5 4 4 5 5 7 6 6 6 6 7 7
12 12 12 12 11 10 8 8 8 7 5 6 6 5 4 3 6 8 8 9 8 7 6 8 11 11 11 11 8 6 5 0 2 3 5 4 5 5 5 4 4 5 4 3 3 7 6 5 2 4 4 6 7 5 2 1 5 6 5 7 7 7 7
12 11 10 10 10 10 9 8 7 7 7 5 7 7 6 6 7 7 8 9 8 8 6 11 11 11 10 10 10 8 6 3 4 4 1 3 4 1 3 4 3 2 5 5 2 3 1 5 4 3 2 3 4 6 8 4 3 4 6 7 6 7 8
12 12 11 11 10 10 9 8 7 7 6 6 8 8 8 8 8 7 7 8 8 7 8 10 11 12 11 11 10 7 5 2 2 1 1 1 1 0 1 1 2 4 4 1 4 5 3 4 4 4 3 4 5 6 7 9 10 8 5 5 7 7 7
12 11 11 11 10 10 8 8 8 7 6 6 7 7 7 8 7 7 7 7 8 8 6 10 12 13 13 13 12 9 2 1 2 2 0 1 2 1 2 2 3 4 5 9 7 9 8 7 6 5 5 6 7 7 7 8 8 7 6 6 7 8 7
12 11 10 9 9 9 8 8 8 6 6 6 5 6 7 7 8 8 7 7 7 8 7 13 13 13 14 14 14 7 1 2 2 0 1 1 2 1 0 1 2 2 7 8 9 12 10 7 5 6 7 8 8 7 7 6 4 6 8 7 6 6 6
9 10 9 10 10 8 8 8 7 5 6 6 7 7 7 7 7 7 7 7 7 7 8 11 13 14 14 15 11 5 1 2 1 1 1 1 2 1 3 5 5 3 7 7 9 12 12 9 5 6 7 8 8 8 8 6 9 9 10 11 12 11 9
8 10 9 9 9 8 7 7 7 5 6 6 7 6 7 7 7 7 8 8 6 7 7 10 13 13 14 15 12 6 4 2 0 2 1 1 3 2 8 10 7 6 8 7 9 11 13 9 5 7 8 9 9 10 8 6 5 3 5 6 10 11 11
9 10 10 8 8 8 7 6 6 5 6 6 7 6 6 6 7 7 7 7 8 6 7 8 12 12 13 14 11 7 5 3 2 3 4 4 1 1 8 10 14 12 9 7 10 11 11 9 7 7 8 9 9 9 8 9 7 8 6 7 7 6 8
10 9 9 7 7 7 6 6 7 6 6 5 5 5 4 5 6 6 5 6 6 6 6 7 8 10 12 13 14 8 5 5 5 5 4 5 5 5 2 9 9 11 10 8 8 8 8 7 5 6 7 7 9 8 9 9 9 9 9 8 8 8 9
8 8 8 7 6 5 5 5 4 5 5 4 4 4 4 4 4 4 4 4 4 4 4 5 7 9 9 11 13 11 5 7 7 6 6 5 5 4 4 7 6 7 7 7 7 6 5 5 2 4 6 7 7 10 13 9 10 11 10 11 10 9 10
7 5 4 6 6 5 4 4 4 4 4 4 4 4 4 4 4 3 3 3 4 4 4 5 5 6 7 8 9 12 8 7 6 6 6 6 5 5 5 5 6 6 9 9 10 10 10 7 3 4 7 10 12 12 8 8 8 9 10 10 11 12 13
7 6 6 6 7 6 5 5 5 4 3 3 3 4 4 3 4 5 4 4 3 4 5 4 5 5 4 5 6 7 6 5 7 4 4 5 6 6 5 7 4 13 15 15 14 13 10 12 9 7 10 11 11 10 7 7 7 8 9 10 11 12 12
6 5 5 5 5 6 4 3 4 4 3 2 2 2 2 2 2 3 4 5 6 5 4 6 5 6 5 6 4 3 2 2 4 4 4 3 4 5 5 6 8 12 12 13 13 12 12 11 9 13 14 15 14 11 7 7 8 9 9 10 11 11 11
Wind_Direction
179 178 196 176 188 158 158 171 162 169 176 175 185 188 182 178 183 187 189 195 201 193 197 221 217 225 204 141 100 61 118 133 151 182 163 165 177 150 89 31 335 333 167 51 153 156 147 140 149 140 106 86 64 53 72 97 101 104 123 146 142 142 134
185 212 209 178 170 160 167 164 167 170 173 179 179 184 186 178 182 186 187 188 199 195 201 211 208 219 198 131 128 157 137 142 185 168 189 153 174 149 136 151 26 331 76 32 337 19 156 149 149 157 149 120 106 93 81 102 113 120 116 90 84 92 100
206 206 191 173 165 166 167 165 168 170 167 167 174 176 181 172 176 184 195 190 190 204 199 221 208 207 165 98 144 169 149 151 178 183 87 195 173 126 113 116 114 98 311 301 282 38 352 199 164 161 152 152 149 130 129 140 141 127 123 138 152 120 112
213 184 181 171 162 160 159 165 166 164 164 153 161 166 173 163 183 180 191 189 192 194 203 216 203 207 172 130 130 158 157 172 201 146 183 127 108 122 137 147 139 148 152 185 126 134 171 285 180 156 158 167 136 140 163 156 154 158 143 129 112 117 119
208 184 172 166 159 159 156 155 152 152 152 142 153 151 162 163 165 177 191 191 191 196 204 215 196 220 180 176 167 189 171 172 221 108 185 122 142 156 142 139 160 155 143 139 135 147 159 219 192 164 169 149 149 149 140 160 175 144 152 154 133 126 124
193 167 162 150 152 152 163 159 151 153 141 148 148 146 142 164 163 172 172 194 191 199 205 210 189 225 187 168 177 166 200 156 218 168 179 142 164 139 175 166 181 172 172 167 166 171 173 223 229 167 166 155 143 139 148 168 159 157 148 143 139 141 120
177 160 154 150 161 154 150 142 155 148 140 138 142 145 135 163 152 154 172 179 202 195 200 206 206 212 187 212 188 199 191 123 209 178 160 118 181 147 174 178 168 185 209 161 137 158 158 185 207 176 168 139 144 151 152 168 156 150 156 152 148 127 131
176 159 158 151 156 145 138 142 129 127 124 125 120 104 128 142 124 136 151 194 185 186 189 185 197 191 178 226 187 186 229 165 200 179 209 140 169 186 198 199 177 173 192 181 154 185 173 192 204 174 172 155 160 159 165 151 161 154 149 139 143 137 122
167 158 147 152 142 135 133 130 123 120 115 105 101 120 121 135 141 186 186 178 185 177 193 190 182 189 177 200 175 180 207 196 180 183 176 164 163 174 205 176 176 183 187 189 163 189 192 209 201 176 172 176 166 157 162 155 172 135 158 144 146 133 129
159 156 146 137 133 129 129 129 127 111 108 117 120 124 142 115 112 264 227 156 161 172 194 193 185 188 182 199 188 175 201 184 197 175 207 175 175 157 155 169 169 188 189 179 187 206 196 227 216 179 184 178 179 158 164 164 149 137 164 153 152 143 144
160 145 138 136 135 133 129 126 127 135 133 130 140 139 137 133 124 181 265 109 161 203 186 202 200 188 180 206 194 186 179 181 152 312 183 193 154 149 132 178 179 190 186 193 182 196 198 195 192 176 208 158 202 170 171 169 139 169 150 167 156 146 154
153 140 141 140 138 137 138 137 139 123 125 138 136 136 145 142 148 137 132 174 190 190 202 189 214 195 215 140 199 180 166 189 183 185 158 178 154 160 147 170 194 185 188 182 186 196 203 171 174 190 223 163 218 142 185 158 152 158 153 177 148 147 156
152 156 152 145 141 139 137 135 128 131 131 128 122 137 144 133 151 150 159 171 189 206 206 209 209 217 228 185 174 192 184 210 219 182 195 161 173 165 164 187 179 190 199 196 169 203 185 164 181 206 220 166 170 110 195 149 166 140 158 169 144 148 155
154 158 151 148 143 139 137 136 134 132 136 126 133 155 150 163 158 173 175 187 195 190 202 205 218 243 223 230 169 167 232 226 196 197 189 166 190 157 215 203 185 175 199 168 207 180 162 170 184 227 217 146 161 178 204 154 143 142 141 160 166 157 156
155 150 150 148 146 143 147 140 137 137 133 129 160 152 147 145 151 174 188 170 171 282 172 185 227 222 229 194 210 189 190 207 222 174 182 180 186 175 184 184 178 177 190 178 183 175 163 179 181 200 163 175 163 186 212 180 147 148 153 165 187 171 153
158 156 154 159 154 151 150 142 145 141 141 142 155 159 131 172 180 177 156 126 145 140 183 155 147 197 189 188 192 211 201 195 201 155 178 177 180 197 146 205 173 173 167 172 186 188 161 185 199 194 159 182 156 190 210 222 137 156 158 176 186 191 164
164 160 160 159 157 151 151 149 146 155 147 156 153 137 132 178 163 154 133 148 127 126 139 150 157 180 176 174 181 171 178 163 167 163 175 175 156 160 141 242 171 173 138 170 196 197 178 193 210 176 152 189 152 194 182 301 162 151 177 159 197 208 166
161 160 159 159 158 154 153 154 151 161 150 156 138 143 162 147 173 151 149 148 143 143 140 160 160 167 145 183 177 153 171 154 158 178 183 203 154 150 153 169 226 152 172 189 183 209 184 205 231 156 177 172 185 172 183 220 253 206 169 183 172 227 183
163 161 161 159 159 156 157 153 150 153 158 150 140 170 152 173 173 153 178 189 185 142 171 145 158 157 166 266 164 166 144 140 176 194 129 155 116 120 160 168 164 189 153 206 196 206 195 199 228 172 184 184 181 159 184 183 240 239 252 219 167 169 268
162 162 157 153 156 159 156 147 151 155 151 139 153 156 160 150 191 153 180 166 141 164 147 171 163 149 164 188 229 99 129 148 154 119 178 224 155 159 196 149 190 180 189 183 168 214 209 201 237 243 192 211 203 163 169 193 204 216 248 238 251 219 192
157 154 152 151 157 157 148 151 153 142 136 140 151 151 150 157 156 194 119 172 103 90 66 31 24 15 347 182 171 200 204 215 166 151 170 166 159 177 194 156 175 191 189 77 196 191 204 190 209 221 207 221 241 240 183 194 221 229 205 216 222 223 219
145 146 146 151 151 150 149 150 148 137 136 139 138 131 146 144 166 133 124 120 134 71 44 32 26 3 3 347 228 180 212 208 227 186 198 200 182 215 191 191 99 64 64 61 59 42 35 33 251 216 215 221 237 229 223 224 218 219 231 225 218 226 231
136 137 139 137 137 140 139 132 132 136 134 130 131 131 136 145 147 147 152 121 64 53 43 39 360 2 5 347 348 300 168 206 211 212 211 206 197 213 205 142 80 70 60 59 57 51 40 46 58 38 7 335 253 232 223 243 241 230 229 227 226 228 222
125 126 125 124 118 105 86 72 81 111 121 120 115 122 132 141 150 155 130 88 73 62 46 15 353 1 353 7 355 347 355 184 210 209 211 216 192 194 212 179 116 112 121 113 122 102 78 33 32 51 47 60 66 15 321 260 236 250 255 246 240 232 234
112 110 113 112 106 103 99 95 90 80 76 108 115 117 128 123 87 78 84 86 78 72 59 9 3 360 2 359 7 337 321 295 229 214 212 203 198 189 194 183 159 158 175 65 90 151 145 132 113 35 24 7 356 6 109 337 320 300 280 268 265 262 264
107 98 96 97 98 100 104 101 94 87 76 75 102 103 96 104 111 91 89 88 82 69 63 25 1 9 3 357 349 336 296 216 188 204 264 255 330 265 180 165 160 214 93 76 281 279 252 160 128 96 12 325 301 279 286 263 231 261 319 316 292 272 262
101 102 98 93 91 89 90 92 93 91 85 68 80 95 101 98 99 97 94 94 85 70 55 9 8 9 7 354 347 334 297 26 346 27 186 299 108 232 91 247 206 195 191 170 18 344 278 266 183 180 202 229 250 231 229 244 244 250 246 269 286 285 288
83 85 84 82 82 85 86 88 88 91 96 99 98 100 104 101 98 100 95 89 87 73 44 9 16 13 8 357 341 321 288 289 242 188 149 116 263 31 331 337 319 308 57 54 27 10 21 6 340 309 288 264 251 250 243 230 226 234 227 230 253 266 276
75 73 77 79 81 80 81 84 87 85 86 89 92 102 104 108 108 105 101 94 91 73 46 22 16 16 10 2 338 291 223 212 226 308 146 133 259 156 32 6 315 10 57 63 22 27 25 352 321 297 288 281 277 274 268 264 266 228 228 238 247 268 285
80 91 83 81 80 83 89 87 81 74 77 82 89 89 89 87 87 94 97 98 86 72 52 22 19 16 12 4 355 343 326 248 166 186 172 345 261 171 79 39 12 19 95 61 29 32 16 355 312 300 290 289 288 285 291 295 55 34 15 358 340 323 312
62 67 69 72 80 77 71 67 66 70 88 91 87 87 89 83 80 73 69 63 62 81 62 38 24 19 12 7 352 343 326 332 84 321 264 162 314 65 77 52 27 49 72 61 44 40 19 351 327 310 304 297 290 281 275 277 276 254 170 232 256 265 273
48 57 61 54 56 62 61 61 59 56 70 79 78 86 89 93 90 83 78 76 23 55 80 57 33 21 12 12 4 346 345 354 355 24 353 324 5 346 104 60 53 57 66 62 46 42 32 17 346 334 330 315 298 287 293 316 304 292 287 279 273 266 255
47 54 63 64 57 54 49 56 60 57 54 70 84 77 80 82 82 77 66 58 56 42 58 67 49 28 15 9 7 352 355 14 15 9 348 351 336 313 99 106 74 75 76 60 47 34 38 38 360 335 325 310 301 301 4 339 320 318 303 282 276 279 277
53 51 51 52 61 67 74 75 78 92 85 70 70 81 76 79 82 84 88 93 87 72 45 59 71 41 27 15 14 3 20 29 8 352 339 328 319 319 313 91 95 80 61 44 30 22 27 15 2 316 303 288 300 337 335 319 317 318 300 290 274 259 261
46 50 66 72 66 64 71 87 95 85 89 115 127 119 118 113 101 93 87 92 108 118 86 59 92 73 51 35 25 27 30 38 15 342 338 330 334 344 341 358 71 27 17 17 10 357 344 341 308 281 281 281 295 308 314 297 292 287 281 277 274 269 262
60 55 56 59 64 54 49 54 62 74 84 82 83 108 124 125 135 144 152 148 135 137 133 113 102 108 100 71 57 50 36 30 350 343 347 328 331 327 334 314 25 18 357 350 346 336 323 310 307 277 273 277 282 291 289 277 281 284 278 274 274 270 269
50 49 49 64 79 74 59 67 64 50 36 60 85 87 88 103 142 149 149 143 146 130 137 134 132 119 121 120 108 103 122 302 327 350 342 309 309 298 309 2 358 348 341 326 313 307 306 299 278 279 283 283 281 285 283 280 275 274 275 274 271 269 266